Wind_Speed
12 12 11 11 10 10 9 9 8 8 7 7 7 7 7 7 7 7 7 7 7 7 8 9 9 9 9 9 8 7 7 7 7 7 7 8 9 10 12 12 13 13 14 14 14 14 14 14 13 12 10 8 6 6 6 7 7 8 8 9 10 11 12 12 12 12 13 14 13 13 13 14 14 15 16 18 18 19 20 20 20 19 18 18 18 18 18 17
13 13 13 12 12 11 11 10 9 9 8 8 8 8 8 8 7 7 7 7 7 7 7 8 8 9 9 9 8 8 7 6 6 5 5 6 7 8 9 10 10 11 12 12 12 12 13 13 13 12 12 10 8 8 8 8 8 9 9 10 11 12 12 12 13 13 14 14 14 14 14 14 14 15 17 19 19 19 21 21 20 20 18 18 19 19 19 18
14 13 13 13 13 13 12 12 11 10 10 9 9 9 9 8 8 8 8 7 7 7 8 8 8 8 9 9 9 9 8 8 7 4 5 6 6 6 7 8 9 9 10 10 11 11 12 12 12 12 12 12 10 10 9 8 9 9 10 11 12 12 12 12 13 14 14 14 15 15 15 15 15 17 19 19 20 20 19 18 18 18 17 19 20 20 20 20
14 14 14 14 14 14 14 14 13 13 12 11 10 10 9 9 9 8 8 8 8 8 8 8 9 9 9 9 9 9 9 10 7 5 6 7 6 6 7 8 8 8 9 9 10 10 11 12 12 12 12 13 12 13 12 11 10 10 11 12 13 13 13 13 14 14 15 15 16 16 17 17 16 19 19 20 21 17 13 13 16 17 17 20 21 21 21 21
15 15 15 15 14 14 15 15 15 15 14 13 12 10 10 9 9 9 9 9 9 8 9 9 9 9 10 10 10 9 9 9 7 7 8 7 7 7 8 9 9 9 9 9 9 9 10 11 12 12 12 13 13 14 14 14 13 13 13 14 14 14 14 14 14 15 16 16 17 17 18 17 17 19 19 21 20 14 10 13 16 17 18 20 21 22 22 21
16 16 15 15 15 15 15 16 16 15 15 15 14 12 11 10 9 9 9 10 9 9 9 9 10 10 10 10 10 10 9 8 8 9 8 8 8 8 8 10 10 10 10 10 10 10 10 11 12 12 13 13 14 15 15 15 15 16 16 16 16 15 16 16 15 16 16 18 18 19 19 19 19 20 20 20 16 11 14 16 16 17 19 21 22 22 22 22
17 17 16 16 16 16 16 16 16 16 16 16 15 14 12 11 10 10 10 11 11 10 10 10 10 11 11 11 11 11 10 9 9 9 8 7 7 8 9 10 10 10 11 10 10 11 12 13 13 13 13 14 15 15 15 15 16 17 17 17 17 17 17 17 18 18 18 19 20 21 21 21 22 22 21 18 13 13 18 17 17 18 19 21 21 22 22 23
18 18 18 17 17 17 17 17 17 17 17 17 17 15 14 13 12 11 11 11 11 11 11 11 11 11 11 11 12 12 11 10 9 8 7 7 7 8 9 10 10 10 9 10 11 12 14 14 14 14 14 15 16 16 16 16 16 16 17 17 16 17 18 18 19 20 21 21 22 23 22 22 24 25 24 18 13 16 20 19 19 19 20 21 21 22 23 24
19 19 19 18 18 18 18 18 18 18 18 17 17 17 16 14 13 12 12 12 12 12 12 12 12 12 12 12 13 13 11 10 9 8 8 7 8 8 9 9 9 9 9 10 12 14 15 15 15 15 16 16 17 16 16 16 17 17 16 16 16 17 18 19 20 21 22 22 24 25 24 24 25 28 26 18 14 19 22 22 21 21 22 22 23 23 24 24
20 19 19 19 19 19 19 19 19 19 18 18 18 18 17 16 14 14 13 13 13 13 13 13 13 13 13 13 13 13 12 11 10 9 9 9 9 8 9 9 9 9 11 13 14 14 15 16 17 18 18 18 17 17 18 18 19 18 17 17 17 18 19 19 20 21 22 23 24 26 27 25 25 29 23 15 15 20 23 25 24 24 24 24 25 25 26 26
20 20 20 20 20 20 19 19 19 19 19 19 19 19 19 18 16 15 15 14 14 14 14 14 15 15 15 15 14 13 13 13 11 11 11 10 10 9 9 9 9 11 13 14 15 15 16 17 18 19 19 18 19 20 21 20 19 18 19 20 19 19 19 20 20 21 22 23 23 26 30 29 27 28 21 17 21 24 26 28 27 27 27 27 28 27 27 28
21 21 21 21 21 21 20 20 20 20 20 20 20 20 20 20 18 17 17 16 16 15 15 16 16 16 17 17 16 15 15 14 13 12 12 12 11 10 10 10 11 12 13 15 16 17 18 19 20 20 19 20 21 22 21 21 21 21 22 22 21 21 22 20 19 20 21 22 22 24 32 35 31 27 22 22 26 26 27 28 27 28 29 30 30 29 29 29
22 22 22 22 22 22 22 22 21 21 20 21 21 21 21 21 21 20 19 18 18 17 17 17 17 18 19 18 17 17 17 16 15 15 14 14 13 12 11 12 12 12 14 16 17 18 19 21 21 22 22 22 23 23 23 23 24 24 24 25 24 24 23 20 18 19 21 22 22 22 32 40 36 30 25 25 26 26 27 28 28 30 30 31 31 30 30 30
23 23 23 23 23 23 23 23 22 22 21 22 22 22 23 23 23 23 22 21 20 19 19 18 19 19 20 20 18 18 18 18 17 17 16 16 15 14 14 14 14 14 15 16 18 20 21 22 23 23 24 24 24 24 25 25 26 26 25 26 25 23 23 23 21 22 23 24 23 21 30 40 38 34 30 27 27 27 29 30 30 32 31 31 31 31 31 32
24 24 24 24 24 24 24 24 24 23 23 23 23 23 24 24 24 25 24 24 23 22 21 21 21 21 22 21 20 20 20 20 19 18 18 17 17 17 17 16 15 16 17 17 19 21 22 24 24 25 25 25 24 25 26 26 27 26 25 25 25 24 26 28 25 24 24 25 26 23 29 38 37 34 35 32 30 31 32 32 31 32 32 31 31 31 31 32
26 25 25 25 25 25 25 25 25 24 24 24 24 24 25 25 25 26 26 26 26 25 25 24 23 23 23 22 22 21 21 21 21 20 20 19 19 19 18 18 18 18 18 19 20 22 23 24 25 26 26 26 25 25 26 27 29 27 25 25 26 27 28 30 29 26 26 26 29 27 31 39 38 34 36 35 33 33 34 33 31 31 32 32 32 31 31 33
28 27 27 26 26 26 25 25 25 25 24 24 24 25 25 26 26 27 27 27 28 28 28 27 26 26 25 23 22 21 21 21 21 22 22 22 21 20 20 20 20 20 20 21 22 23 24 24 25 27 27 27 26 25 23 25 27 26 24 25 26 27 29 32 32 30 29 28 31 33 37 42 39 35 35 35 35 35 36 35 32 32 33 33 32 31 31 32
31 30 29 28 28 27 27 27 26 25 25 24 25 25 25 26 27 27 28 28 29 29 30 29 28 28 27 25 23 21 20 22 23 24 24 23 22 22 23 23 23 23 23 23 24 24 24 24 25 27 29 29 27 25 24 23 24 24 24 27 29 30 30 31 33 33 33 33 34 37 41 44 42 38 36 35 36 38 39 37 33 32 34 34 33 31 30 30
33 32 32 31 30 29 29 29 27 27 26 25 25 26 26 27 28 28 29 29 30 30 30 29 29 28 27 25 22 20 18 19 21 22 23 24 24 26 25 25 26 25 25 26 26 25 25 26 27 29 31 29 26 24 24 23 23 24 27 29 30 32 32 31 33 34 35 37 38 39 43 45 44 42 39 36 37 40 40 39 36 34 35 35 32 30 30 30
35 34 34 33 33 32 32 31 29 29 28 27 27 27 28 29 29 30 30 31 31 30 30 30 31 30 30 28 26 25 23 23 23 24 25 26 28 29 27 27 28 27 27 28 28 27 27 28 30 30 28 26 23 21 22 24 24 26 28 30 31 33 34 31 32 36 37 39 42 42 44 47 48 47 43 39 38 40 40 37 33 30 28 27 27 28 30 29
36 35 35 34 34 34 34 33 32 31 30 29 29 29 30 30 31 32 32 33 32 32 32 31 32 32 31 31 30 30 30 31 31 29 29 30 30 30 30 30 30 30 29 29 31 31 30 32 32 28 25 24 22 21 22 24 26 27 28 30 32 33 35 33 32 37 37 39 43 44 46 51 52 49 46 44 42 38 32 27 24 22 21 22 23 26 28 26
38 37 36 34 34 34 35 34 33 33 32 31 30 31 31 31 32 33 35 37 36 34 34 33 33 33 32 32 32 32 34 35 34 33 32 33 33 33 33 32 32 33 31 31 34 34 33 35 31 25 24 24 22 22 24 26 27 28 29 31 33 33 35 35 34 37 37 39 44 46 50 56 55 52 49 45 41 31 19 18 23 23 22 23 22 23 25 25
39 38 37 35 34 33 34 34 33 33 33 32 32 31 32 32 33 34 36 41 41 37 36 35 35 34 32 32 33 33 37 38 37 35 35 36 37 36 36 35 35 35 34 36 37 36 36 33 27 22 22 23 24 25 26 28 30 30 30 32 34 34 34 36 37 38 40 40 43 46 53 60 59 53 47 38 32 26 18 20 26 25 24 23 21 23 24 25
38 38 38 37 35 34 35 34 34 34 33 33 33 32 33 33 34 35 37 43 46 43 39 37 37 35 33 33 34 35 37 38 38 38 37 39 39 39 40 38 37 38 39 38 38 38 37 33 28 25 24 26 27 27 29 31 32 32 32 33 35 36 34 38 39 39 41 40 42 44 48 60 58 43 36 30 27 31 31 30 28 26 25 24 23 23 23 24
36 36 37 37 36 36 36 36 35 35 34 35 34 34 34 34 35 36 38 43 48 47 42 40 39 37 35 35 35 36 39 40 39 39 39 40 40 40 41 39 40 41 40 38 39 40 37 32 30 27 27 28 29 30 29 31 34 34 33 34 35 35 35 38 37 35 34 32 36 33 27 40 43 27 29 35 35 39 39 36 33 29 26 24 22 21 22 25
33 34 35 35 35 35 36 37 36 36 36 36 36 36 35 36 35 35 37 41 46 47 43 39 36 35 35 34 33 33 38 40 39 39 41 40 40 41 42 41 41 41 39 37 36 36 34 30 29 29 28 29 30 31 29 31 35 36 34 34 34 36 36 35 33 29 24 22 31 29 18 28 33 26 38 47 43 42 39 39 38 30 24 20 19 21 23 25
33 33 33 33 33 32 34 35 35 35 36 36 36 36 36 36 34 34 33 30 31 34 32 28 25 26 28 27 26 28 32 35 33 34 37 37 38 39 41 42 40 39 39 35 32 31 31 28 27 29 29 29 31 32 30 31 34 36 35 34 33 35 34 31 29 27 28 32 36 35 28 31 34 37 48 49 40 39 40 38 36 30 25 17 18 22 23 25
35 34 33 34 33 32 33 33 34 33 33 34 35 36 36 35 34 32 25 14 11 14 14 13 11 12 15 16 18 22 26 28 26 25 26 28 31 33 35 36 35 36 36 35 35 33 31 30 29 30 31 32 33 33 32 31 34 36 36 35 34 34 32 30 29 27 33 34 25 29 29 23 33 46 46 40 36 37 38 36 35 35 30 19 20 23 23 25
37 36 36 35 35 35 34 35 35 34 33 34 33 34 35 34 33 28 19 10 8 10 11 11 11 10 11 15 20 24 26 26 25 24 23 25 28 30 31 30 30 33 34 36 39 36 34 34 33 33 35 35 34 34 35 34 35 36 35 33 31 31 30 29 30 29 31 25 16 26 29 15 27 41 32 29 32 30 32 36 38 32 23 18 20 22 22 24
37 38 37 37 37 36 36 37 37 35 35 35 34 34 33 32 30 20 13 13 11 11 11 12 15 15 16 22 27 30 31 30 30 29 28 28 30 31 32 30 30 32 33 35 38 37 38 38 37 37 36 36 36 37 38 36 36 36 34 32 28 29 29 27 29 26 20 14 13 25 30 19 19 23 19 24 27 26 35 40 33 20 15 20 21 20 22 22
37 38 37 38 37 37 38 37 37 36 35 34 33 33 31 31 29 17 11 17 19 18 18 17 18 20 22 26 27 28 30 32 32 32 31 31 31 33 34 31 31 32 33 37 39 38 39 40 41 40 37 37 39 40 40 39 38 35 32 30 24 20 18 17 18 14 8 7 7 16 22 20 21 20 23 31 32 36 41 30 17 15 21 25 21 21 24 24
36 37 38 37 36 36 36 35 36 36 35 35 32 32 31 27 28 29 26 21 14 13 17 19 20 21 20 24 25 25 27 30 31 30 32 33 35 37 36 34 34 30 29 35 38 38 41 42 41 39 38 38 38 39 40 40 39 37 33 27 16 7 6 7 5 5 8 11 15 18 15 19 35 45 47 46 40 35 26 12 16 31 33 27 23 24 27 26
39 40 40 39 38 37 35 33 33 34 34 34 32 33 31 21 26 39 40 30 18 13 14 15 16 17 19 24 26 24 26 29 30 29 32 34 37 39 37 37 38 33 31 33 32 31 33 38 40 39 38 38 38 40 40 40 40 37 34 27 15 4 2 6 5 3 7 13 20 20 14 18 36 46 42 32 25 23 21 24 35 41 33 25 24 25 27 28
43 44 43 42 41 39 36 33 32 32 31 32 32 31 29 28 34 37 35 36 34 30 28 24 22 23 26 29 28 26 27 29 29 30 33 36 39 41 41 40 39 40 40 37 33 29 24 28 36 35 34 36 36 35 35 37 38 35 31 26 19 14 10 6 5 4 6 15 19 11 10 19 26 31 30 24 27 38 42 42 37 29 23 22 23 24 26 27
44 46 47 45 43 41 38 33 32 31 30 32 32 30 34 44 48 42 41 43 39 38 39 36 34 34 33 33 31 29 30 30 32 33 35 39 41 42 43 42 39 41 41 36 34 32 28 36 43 37 35 39 36 34 33 32 32 31 27 24 25 29 25 14 13 16 12 15 17 12 21 41 46 49 54 46 46 48 39 33 29 24 23 22 23 23 23 24
45 48 50 49 46 43 40 37 35 32 32 32 31 36 48 55 51 46 47 44 39 40 39 37 38 37 36 36 35 34 33 34 36 35 36 40 42 46 47 45 42 41 42 39 36 32 27 36 44 37 35 37 34 34 35 31 29 27 25 28 31 32 26 17 16 22 15 9 19 21 27 49 53 50 52 41 36 37 31 33 35 30 26 24 24 23 21 23
43 48 51 50 47 43 41 39 37 36 36 35 35 44 57 59 54 50 47 42 38 35 31 33 36 36 34 34 35 36 33 35 38 38 39 39 40 47 49 46 44 43 43 42 41 39 33 35 44 39 32 33 31 30 33 36 33 29 29 31 29 22 19 17 8 8 8 5 19 27 27 40 40 30 33 33 30 37 40 39 36 29 27 27 27 27 23 22
41 46 53 54 50 45 43 41 40 41 40 37 40 49 56 56 56 55 50 47 43 36 33 36 37 36 35 35 36 34 30 35 40 39 41 41 41 48 47 43 44 43 40 39 40 43 39 35 41 44 37 33 34 33 33 35 34 35 36 33 26 14 10 15 10 5 9 4 9 26 31 41 45 37 39 41 37 41 41 36 33 32 33 33 33 31 26 24
44 48 56 59 52 45 45 45 43 43 43 42 46 54 58 57 57 56 53 51 48 43 42 42 40 38 39 40 40 36 33 37 40 40 41 42 42 47 45 41 40 37 35 36 38 43 42 32 31 39 35 28 33 36 36 38 37 38 38 34 32 24 14 18 19 13 10 4 8 21 24 36 49 41 38 39 40 44 42 37 40 42 40 38 36 34 28 27
49 53 60 62 55 48 46 47 47 46 48 51 52 55 58 57 54 53 54 53 51 48 46 45 42 40 41 43 41 40 39 39 42 42 43 44 45 47 45 41 40 38 34 32 33 38 41 35 31 35 33 28 35 40 40 42 42 41 41 37 36 33 25 21 23 24 16 5 6 8 11 37 52 37 32 41 46 51 47 44 52 53 48 43 39 36 31 28
50 52 57 57 56 54 49 48 50 51 52 55 57 57 57 57 55 52 51 51 52 50 48 47 45 44 44 44 43 43 41 41 43 44 45 48 48 47 47 43 40 39 36 34 35 36 39 38 36 38 39 38 45 49 46 45 42 41 43 41 40 39 33 19 12 25 28 18 17 11 7 43 63 44 43 55 54 54 52 53 61 60 54 50 44 38 33 31
46 50 53 52 54 55 52 52 52 52 52 54 56 56 55 55 56 54 51 51 50 50 49 49 49 48 47 47 47 45 42 42 45 46 47 50 49 49 50 47 44 43 40 37 37 38 39 38 37 39 42 45 47 48 45 42 40 38 37 39 40 40 41 28 13 21 28 28 36 24 9 43 74 63 60 69 65 63 63 62 64 61 56 54 48 42 37 34
44 47 49 50 53 54 53 51 50 51 54 55 55 54 53 53 54 54 53 51 49 49 49 50 51 51 50 50 48 46 45 45 47 50 49 49 52 53 51 50 49 47 44 40 37 36 34 33 33 34 37 44 48 50 48 42 35 34 39 44 42 43 46 41 34 32 26 26 33 15 5 44 78 71 65 71 69 67 66 63 62 60 59 58 54 51 43 37
48 47 47 49 52 54 55 54 52 55 57 57 57 56 54 54 54 55 55 53 51 50 50 52 53 52 51 50 49 49 48 45 46 49 48 48 53 54 52 52 52 49 48 47 43 38 33 33 30 22 19 26 34 39 41 42 39 40 45 47 44 45 42 39 44 39 27 37 38 9 7 50 76 69 67 70 67 66 67 65 64 65 65 63 60 56 49 43
49 48 47 48 49 52 56 58 57 59 59 58 59 59 57 56 56 55 55 55 54 53 52 53 52 51 50 48 49 50 49 47 46 46 45 47 53 54 52 51 50 50 52 49 46 42 36 36 34 24 14 13 19 24 26 29 34 39 45 46 44 44 40 39 43 34 26 42 44 21 27 63 74 68 69 72 69 70 72 70 69 68 67 66 63 58 54 51
48 48 47 46 45 46 52 57 56 57 59 57 57 56 56 57 58 57 57 57 56 56 56 55 53 51 48 46 46 47 50 51 49 49 50 52 54 53 50 48 46 47 48 47 45 42 38 39 41 40 36 35 41 47 41 31 29 30 35 38 37 38 39 40 42 42 37 32 30 38 56 66 67 68 71 73 72 72 73 72 70 70 70 69 65 60 58 58
47 49 51 50 45 43 48 53 55 56 57 57 55 55 56 57 56 56 56 57 56 55 55 55 55 53 50 48 48 50 54 53 50 51 56 58 57 55 51 48 45 44 45 44 42 41 40 40 42 46 49 50 53 58 55 47 42 39 35 34 33 33 37 41 47 56 50 24 21 53 68 56 56 68 72 73 73 72 73 72 71 71 71 68 65 63 64 65
49 51 54 54 51 48 50 54 57 58 57 56 56 57 57 57 55 56 56 56 55 54 52 52 54 53 53 52 52 53 53 49 47 51 56 58 58 55 53 51 48 45 43 39 37 39 40 39 41 43 46 49 49 51 55 55 51 46 41 40 40 41 45 52 58 64 57 40 43 65 65 52 57 69 73 74 74 74 75 74 72 70 68 68 69 70 72 72
53 53 53 54 55 57 58 58 59 60 59 57 58 59 58 59 60 62 60 56 56 55 53 53 55 57 58 56 53 54 53 47 48 53 56 56 54 52 51 51 49 45 39 33 33 35 36 38 41 43 44 47 49 52 56 56 53 51 49 47 49 53 57 60 63 66 63 60 66 69 62 60 67 73 75 74 72 75 76 74 75 74 72 74 74 74 74 71
55 55 53 52 54 56 58 59 59 61 61 58 59 60 60 62 64 64 61 58 57 57 57 58 62 65 65 60 56 57 57 53 54 55 54 53 53 52 50 50 49 45 40 38 38 39 40 42 44 45 43 44 50 55 57 56 53 52 50 50 56 62 60 58 63 69 64 61 67 65 58 64 72 73 73 71 70 74 75 74 76 73 72 73 71 70 71 68
56 57 55 52 52 52 54 57 59 61 62 62 62 62 61 63 63 63 64 64 62 61 62 64 67 67 63 59 57 59 58 56 56 53 50 50 53 53 51 51 52 49 47 49 50 49 48 48 49 46 37 39 52 56 55 54 48 42 43 51 61 66 62 60 66 69 64 61 63 56 53 65 73 70 70 72 71 71 71 71 69 65 66 69 69 69 68 65
56 57 57 55 53 53 53 54 55 57 60 61 62 63 62 62 61 60 61 63 62 62 62 63 64 62 59 59 60 60 61 60 57 53 49 48 53 57 56 56 56 55 55 55 52 49 47 45 46 40 32 39 53 53 50 43 29 27 42 56 64 66 65 68 71 68 65 65 62 57 61 72 76 72 73 74 71 68 68 66 63 63 67 68 68 68 66 62
Wind_Direction
274 277 281 285 290 293 294 296 296 296 299 304 310 315 319 324 328 330 331 332 333 333 333 334 336 339 343 346 351 358 3 11 15 18 19 17 14 13 14 12 12 11 13 14 16 17 15 12 12 11 10 5 352 341 329 319 314 306 299 290 286 291 294 296 298 297 295 297 296 294 291 290 290 287 285 284 285 290 292 291 292 295 297 295 292 287 284 281
271 273 277 280 283 286 289 290 290 291 293 295 300 303 306 310 313 316 316 318 318 317 318 318 321 324 327 330 336 337 338 344 349 359 5 359 359 3 3 359 360 0 360 1 2 5 5 3 3 1 0 357 352 347 337 327 319 312 305 297 293 297 301 299 299 298 296 296 296 294 293 291 290 286 283 284 288 290 291 295 297 296 294 290 286 284 283 281
269 272 274 276 278 281 283 285 286 287 288 291 294 296 298 299 301 303 303 305 304 304 303 302 306 307 311 314 319 323 322 324 323 325 336 334 340 350 349 344 345 347 348 349 350 350 352 351 349 348 346 344 342 339 336 328 319 314 309 304 304 305 305 303 301 298 296 296 294 295 293 292 290 286 285 287 290 291 298 305 298 291 289 285 282 283 283 281
267 269 271 273 274 276 279 282 283 284 285 286 289 292 293 292 292 293 293 294 293 293 292 292 294 294 297 300 306 311 310 315 311 297 315 317 322 330 327 328 329 331 333 337 340 340 341 338 333 334 334 333 330 326 324 320 315 313 310 308 309 308 307 306 305 301 299 298 296 296 293 293 293 290 291 291 293 303 312 301 287 284 283 281 281 281 279 278
264 265 268 270 271 272 274 277 280 282 284 284 285 287 287 287 286 286 287 287 287 286 285 285 286 285 287 289 293 297 300 311 309 299 308 308 311 317 314 316 318 321 322 324 330 331 330 324 322 324 323 324 322 316 312 310 309 307 307 307 305 305 304 303 303 301 300 299 299 298 297 297 296 295 297 295 300 314 304 280 278 281 278 276 278 277 276 277
261 263 264 266 268 269 270 273 276 278 280 282 283 283 284 283 280 281 283 284 284 282 281 281 281 280 281 282 284 286 288 297 301 300 302 303 307 309 308 310 311 314 317 318 322 325 326 321 318 317 315 317 314 309 305 302 301 300 301 302 301 299 297 298 299 297 296 295 297 298 298 299 298 298 297 299 311 308 282 278 279 280 278 277 277 277 278 276
260 261 262 263 265 266 267 269 271 274 277 279 280 281 281 281 278 278 280 282 283 282 279 277 277 277 277 277 278 279 280 286 291 292 295 299 305 306 305 306 308 311 313 317 321 323 323 321 319 314 310 309 306 305 302 296 294 294 295 296 296 294 292 293 294 294 293 292 293 293 295 296 296 295 293 304 321 294 278 285 288 286 284 282 282 282 280 278
259 260 261 262 263 264 266 267 269 271 273 276 278 279 278 279 278 277 278 280 281 282 279 276 275 275 275 274 274 275 276 278 280 282 286 293 300 304 304 303 306 309 311 317 321 321 320 320 319 314 308 302 300 300 298 296 293 293 293 292 292 291 291 291 291 292 291 291 291 290 291 292 291 290 291 305 312 287 281 288 293 293 289 286 285 283 282 280
257 258 260 261 262 262 264 266 268 270 272 274 276 277 276 276 277 278 278 279 280 281 280 277 274 273 272 272 271 272 273 270 270 273 276 287 298 300 301 303 304 306 312 317 318 317 316 315 314 312 307 301 299 297 294 295 294 294 294 291 290 290 290 291 291 291 290 290 289 288 288 287 288 288 296 314 305 284 284 287 292 294 291 288 286 285 284 283
255 256 258 260 261 262 263 264 266 269 271 272 274 275 275 275 275 276 276 277 279 279 279 277 274 272 271 269 268 269 269 263 264 268 269 281 293 295 298 300 301 305 310 312 313 313 311 311 310 309 306 303 301 297 294 293 293 294 292 292 293 291 290 290 291 291 291 290 289 289 286 283 284 286 300 326 299 284 286 286 290 292 290 289 288 289 288 289
254 255 256 258 259 260 261 262 264 266 268 270 272 273 273 273 273 273 274 274 276 277 276 275 272 271 269 266 265 265 264 261 262 264 266 277 286 289 292 292 297 304 308 310 310 309 308 307 306 305 302 301 299 297 295 293 292 291 291 293 294 291 291 292 293 292 291 291 291 293 288 282 279 285 305 319 296 291 290 288 289 290 289 290 290 290 291 293
254 254 254 255 256 257 258 259 261 262 265 267 269 270 272 273 272 271 271 271 272 274 274 273 272 269 266 264 263 262 260 258 261 262 265 273 279 280 280 284 294 299 305 308 308 308 307 306 305 302 298 296 296 296 295 294 292 290 291 293 293 293 293 294 295 295 293 292 292 294 290 285 282 291 306 304 294 295 292 289 289 287 287 288 288 288 290 291
255 254 253 253 253 254 255 256 257 258 260 262 264 267 268 270 271 271 270 270 270 271 271 271 270 268 265 263 262 260 257 256 259 261 265 269 272 272 272 279 287 294 301 304 305 307 306 305 304 300 297 295 294 293 293 293 291 290 290 290 292 295 295 296 297 298 298 294 291 289 287 290 294 301 304 296 294 296 293 291 289 287 286 286 286 285 286 288
257 256 254 254 253 253 254 254 255 255 256 258 260 262 265 267 269 270 270 270 269 269 270 269 269 267 265 263 261 258 256 257 257 260 263 265 266 266 267 276 281 287 295 298 301 305 305 305 304 301 298 296 294 293 291 290 288 289 290 289 291 293 294 298 299 301 303 298 295 286 280 291 302 305 303 298 296 295 292 290 289 288 287 286 286 284 285 286
260 259 258 256 255 254 254 254 254 255 255 256 258 260 262 264 266 268 269 269 269 269 268 268 268 267 265 263 261 258 256 257 258 260 262 262 262 261 264 271 275 284 290 292 297 302 302 302 301 300 298 296 295 292 289 288 287 287 287 286 289 291 293 298 298 299 303 301 298 286 278 291 302 306 305 301 298 295 291 290 289 289 287 286 285 285 286 286
262 261 261 260 259 257 256 257 256 256 256 257 258 260 262 262 264 266 267 268 269 268 268 268 267 266 266 264 261 259 257 257 258 259 259 260 260 258 263 269 272 282 286 287 294 298 298 299 300 299 297 296 293 290 288 286 284 285 284 283 286 290 293 298 298 298 300 299 298 290 282 290 301 307 306 302 299 297 293 292 291 289 286 284 284 286 287 284
262 262 262 262 262 261 260 260 259 259 259 259 261 262 264 264 264 265 266 267 267 267 267 266 266 265 265 265 264 263 261 260 258 257 258 260 258 257 265 269 272 280 282 283 290 294 295 297 298 296 295 293 289 286 281 277 282 287 286 282 284 288 291 295 296 298 298 294 296 293 286 291 301 305 303 302 301 298 295 295 293 288 285 283 283 286 285 281
263 263 263 263 263 263 263 262 262 262 262 262 264 264 266 267 266 266 267 267 267 267 267 266 266 266 266 265 266 266 263 260 257 256 257 258 256 261 268 268 272 277 277 279 285 289 290 293 295 293 290 289 288 285 275 273 283 286 283 280 283 286 289 292 294 297 296 292 294 292 288 294 301 302 302 303 302 298 296 296 294 289 286 283 283 284 281 279
264 264 263 263 263 263 264 264 264 265 265 265 266 267 268 269 269 268 268 268 267 267 268 268 265 264 264 263 264 263 259 254 254 254 255 255 258 264 267 268 272 274 273 276 281 283 285 288 289 286 286 290 293 288 278 277 280 279 279 279 281 285 288 293 295 295 294 292 292 290 291 295 299 300 302 303 301 297 296 296 294 291 286 283 282 280 277 281
265 264 264 263 263 263 264 265 265 266 267 267 268 269 271 272 272 270 269 268 268 267 266 266 264 263 262 262 261 260 257 253 254 255 255 256 260 264 265 267 271 269 271 276 277 279 280 281 283 283 288 293 291 282 275 274 274 275 278 278 281 283 287 295 297 293 294 292 291 293 293 294 296 299 302 303 299 296 297 297 296 293 287 283 282 279 279 282
265 265 264 264 263 264 264 265 266 267 267 268 268 269 270 272 273 274 272 269 268 267 266 265 264 263 262 262 260 259 258 257 256 256 256 257 259 262 264 267 268 268 271 274 274 275 275 275 281 286 288 287 279 271 269 271 273 274 274 276 279 282 288 296 295 292 295 292 292 296 294 293 296 299 302 302 298 298 299 298 301 299 292 290 285 281 279 277
265 265 265 265 265 264 265 265 266 266 268 268 268 269 270 271 273 276 277 274 270 267 267 266 265 264 263 261 260 259 258 257 256 255 256 257 257 260 264 265 266 268 270 270 270 272 272 275 283 284 279 275 271 268 268 271 272 271 270 272 276 282 290 293 292 293 295 293 294 296 295 294 296 299 301 301 299 302 300 296 306 303 296 296 286 276 274 271
265 265 265 265 265 265 265 266 265 266 267 267 268 269 270 272 274 275 277 278 275 271 269 267 266 266 264 262 261 259 258 258 257 256 255 256 256 259 262 263 266 268 269 268 269 269 270 277 281 274 270 270 268 268 270 272 272 270 271 271 275 284 289 287 290 294 293 292 293 295 295 294 296 299 300 300 300 304 297 295 306 305 299 298 281 272 274 273
264 264 264 264 264 264 265 265 265 266 266 268 268 269 271 273 275 277 278 279 277 274 272 270 268 266 264 264 262 260 259 259 257 256 255 256 258 259 261 264 266 267 268 269 269 268 269 273 270 264 268 271 269 272 275 275 274 275 275 273 278 285 286 284 288 290 290 291 292 296 300 296 298 300 298 299 298 298 301 300 302 305 301 294 281 273 275 275
263 264 263 263 263 263 264 264 264 265 267 268 269 270 271 272 275 277 279 280 279 277 275 273 272 270 266 261 259 260 261 260 259 259 257 257 258 259 261 263 264 266 268 268 267 266 267 267 262 262 268 270 271 274 277 278 276 275 276 277 282 285 284 283 285 287 290 291 291 302 311 299 298 296 289 295 294 295 303 303 301 307 302 290 277 271 274 274
265 265 264 263 262 262 263 264 264 264 265 266 268 270 271 272 274 276 279 281 279 278 278 275 272 271 268 262 259 259 258 259 260 259 258 258 258 260 260 261 262 264 266 266 264 263 264 261 258 261 266 269 272 272 277 280 273 269 276 282 282 281 280 280 282 283 284 283 287 297 302 290 289 281 284 294 295 293 299 303 305 309 303 283 267 272 275 267
268 267 267 265 264 263 263 264 265 264 265 266 267 268 269 271 273 275 281 283 278 279 279 272 266 264 266 266 262 255 252 258 260 257 259 259 258 259 259 260 262 262 263 261 257 258 261 259 259 264 267 269 269 272 279 280 270 269 278 282 278 277 278 277 278 279 281 285 286 288 285 281 277 275 285 293 293 292 297 303 308 311 307 282 261 278 275 257
269 269 269 268 267 265 264 266 266 266 267 267 267 267 268 269 270 272 277 278 275 282 276 259 251 252 260 266 265 258 256 261 260 255 257 257 258 259 258 261 262 261 260 256 253 256 260 260 262 265 266 267 270 275 279 277 271 272 277 277 273 275 275 275 279 281 287 290 283 281 282 275 274 278 287 291 286 290 299 305 311 313 311 289 267 280 267 248
269 268 268 269 269 268 267 267 267 267 268 268 268 268 267 267 269 269 264 255 261 275 264 245 238 233 245 260 266 267 265 265 262 259 260 258 259 259 258 260 259 257 256 253 253 256 258 259 261 263 264 269 273 275 274 272 271 272 274 273 271 272 272 275 281 283 288 284 255 268 276 263 276 280 278 279 281 289 301 307 312 312 308 293 281 276 257 246
268 268 268 269 269 270 269 268 269 269 268 268 268 268 267 267 265 258 247 245 254 266 253 237 239 241 247 256 262 264 264 265 264 264 263 260 259 259 258 257 255 255 254 252 253 255 257 260 260 260 264 268 271 271 271 270 269 269 269 269 269 272 274 278 281 280 282 271 245 271 274 255 269 281 275 279 286 295 303 308 310 308 302 300 291 271 256 256
269 269 269 269 270 271 270 269 269 269 269 268 267 266 265 265 258 240 233 251 258 261 251 239 246 252 255 257 258 259 260 261 262 262 262 259 257 255 254 253 251 251 251 252 254 257 259 259 259 261 264 266 267 268 269 269 268 267 265 264 269 277 281 279 271 261 250 255 261 280 276 246 240 262 280 285 289 297 303 306 306 308 308 304 291 271 266 268
272 271 271 271 272 272 273 272 269 269 268 265 265 263 260 260 250 237 238 251 261 260 248 244 249 254 258 257 252 250 251 254 257 259 260 259 256 254 253 253 252 248 248 253 257 260 261 261 261 262 262 264 265 264 265 265 264 263 257 256 261 275 290 263 224 214 236 254 268 273 270 242 246 263 276 280 285 296 302 303 300 306 307 299 284 272 271 272
272 273 272 272 273 274 276 276 270 266 265 262 260 259 253 249 247 244 242 243 245 248 252 251 253 257 258 253 249 248 245 249 254 255 256 256 255 254 252 250 249 246 248 255 258 258 261 263 259 257 259 261 262 261 262 264 264 261 256 249 239 214 277 254 234 251 253 260 271 269 265 257 262 274 281 280 287 298 299 298 300 303 302 293 281 272 271 273
272 272 271 272 272 272 273 273 268 264 262 258 254 250 241 237 246 249 246 246 247 252 257 259 260 262 258 250 249 251 248 251 253 251 252 252 252 253 252 249 247 246 248 250 251 252 256 262 259 255 259 262 263 264 265 267 265 262 260 250 235 228 228 245 271 282 290 293 285 258 244 262 268 278 282 281 288 292 295 297 298 299 296 291 283 276 276 274
275 273 272 270 270 270 270 269 266 262 257 252 248 239 232 237 245 249 250 251 249 251 255 259 260 260 256 252 251 253 251 251 252 249 248 249 250 255 256 254 251 248 245 243 247 251 249 257 262 259 259 263 266 266 265 261 255 254 252 238 234 242 241 245 269 273 290 305 283 238 248 267 273 278 279 281 287 291 294 295 294 296 295 289 283 282 281 274
277 275 273 271 270 270 268 265 264 261 257 252 241 234 239 245 249 250 253 255 252 252 254 255 257 255 253 253 250 249 248 247 250 248 247 250 253 255 256 256 255 251 249 245 247 250 248 258 266 263 261 263 264 264 262 253 245 244 241 234 240 249 245 240 261 272 278 292 274 261 265 275 281 284 283 283 288 290 292 294 295 298 296 287 284 290 287 273
272 272 273 274 272 270 267 264 261 259 257 249 235 237 246 249 250 251 254 256 254 254 251 248 252 252 250 253 252 251 247 245 247 246 248 252 255 257 257 257 257 254 254 254 250 251 252 259 266 266 264 262 260 260 256 247 240 236 238 243 248 250 240 233 243 281 264 250 273 271 274 283 282 280 283 286 290 291 292 295 296 295 294 291 292 298 292 273
268 272 273 272 269 267 267 265 261 259 257 248 242 248 252 252 253 254 254 256 257 257 252 247 251 253 253 256 258 257 249 244 246 246 248 251 255 260 261 260 260 259 259 257 250 251 251 255 264 265 263 262 260 254 245 241 238 236 241 245 242 232 208 212 207 247 254 220 279 278 280 282 274 269 278 285 288 292 293 294 293 292 295 296 298 300 290 271
262 265 266 267 265 264 264 262 260 257 251 245 246 253 256 256 256 255 254 257 258 256 254 252 252 253 255 257 257 258 253 250 251 249 250 252 254 261 263 261 263 263 261 254 248 250 250 248 259 262 259 257 253 244 235 237 237 233 236 236 236 236 220 215 216 221 244 232 268 281 285 279 274 274 279 284 288 291 292 290 291 294 296 297 300 299 287 268
260 258 257 261 261 257 256 256 254 249 245 246 250 254 259 259 258 258 257 257 256 255 255 256 254 252 254 256 256 257 255 255 255 252 251 253 256 261 264 263 264 265 263 254 247 247 244 240 248 257 257 250 247 249 249 251 247 236 233 231 233 235 227 229 234 228 231 243 260 271 276 273 276 281 282 285 289 289 288 288 290 294 295 295 296 296 289 267
265 261 256 259 258 254 251 247 245 245 245 249 253 255 258 260 262 262 260 257 256 256 257 257 257 255 255 256 256 257 254 252 254 252 251 254 256 260 264 265 266 266 261 250 242 242 238 236 241 249 252 253 258 265 265 261 257 250 245 245 247 245 232 224 238 234 229 228 238 236 254 269 272 276 280 283 286 284 284 287 290 292 293 293 293 293 290 272
264 261 260 263 260 257 253 246 246 248 247 250 255 257 260 263 264 263 260 258 257 257 258 258 259 258 257 258 259 258 254 252 254 252 251 254 257 261 266 268 266 265 262 255 252 253 246 239 237 241 251 260 266 268 264 259 256 252 250 250 252 250 236 222 217 234 232 232 241 241 246 267 269 273 279 282 282 282 283 286 290 291 291 293 294 293 290 279
264 265 266 265 262 261 255 247 246 248 250 255 259 260 262 264 263 263 262 260 258 259 260 259 260 259 259 260 260 258 256 255 256 254 253 256 260 265 267 266 264 263 261 257 253 250 239 228 230 239 250 258 261 262 264 265 259 249 249 249 245 244 241 236 236 241 242 240 241 232 217 264 271 276 279 281 281 282 284 287 290 291 290 292 293 294 291 283
266 268 268 264 261 260 254 248 248 251 256 260 260 260 261 261 261 262 262 261 261 262 261 261 262 261 261 261 260 260 259 256 256 258 257 257 263 268 267 262 261 260 258 257 254 250 239 225 224 233 248 254 257 261 263 261 254 249 252 251 246 245 243 238 239 241 246 248 244 217 222 259 270 278 277 278 280 282 285 287 287 289 290 291 292 294 294 289
265 264 264 260 253 249 250 252 254 256 259 261 260 261 261 260 261 263 262 262 263 264 261 260 260 260 261 261 260 260 258 255 256 260 260 260 264 267 265 261 260 259 259 260 257 253 247 238 231 225 223 232 241 247 251 251 248 246 249 250 249 248 241 237 239 236 240 248 243 229 246 259 269 277 276 277 279 281 283 284 285 288 289 290 292 293 293 293
264 260 258 256 248 241 246 253 252 250 254 256 255 257 258 258 260 261 260 260 262 263 260 258 258 258 257 257 257 258 259 257 257 258 259 260 261 262 262 260 258 258 258 257 255 251 247 244 240 235 233 234 240 247 253 259 259 254 255 255 253 252 248 244 240 234 236 243 239 243 253 260 268 275 277 277 277 278 280 282 285 287 288 289 290 291 292 292
259 258 256 256 251 239 240 248 249 247 249 250 249 252 256 258 258 258 259 261 263 261 259 259 259 257 256 259 260 260 261 260 257 256 259 260 259 259 260 259 257 256 255 253 251 247 239 237 239 241 242 243 247 254 258 259 261 262 265 265 261 262 257 245 240 243 244 238 243 256 260 260 265 272 277 279 279 278 280 282 284 286 286 287 288 289 290 290
253 256 259 261 257 248 244 252 258 257 254 252 251 254 257 258 258 259 263 266 263 259 257 258 259 261 265 269 265 260 260 258 254 253 256 257 257 256 256 257 257 256 255 253 246 240 237 236 240 243 246 248 250 254 256 256 258 260 261 264 264 266 263 253 252 256 253 244 250 261 264 264 267 271 276 281 282 280 280 283 284 283 283 284 286 288 289 291
253 254 257 260 260 258 258 262 265 265 263 260 256 255 257 259 260 263 267 265 260 259 259 258 263 269 272 274 268 257 253 253 253 256 259 258 256 255 254 255 256 254 250 245 240 240 240 241 243 245 249 252 251 252 254 255 257 258 258 261 263 263 262 260 262 265 260 255 258 263 264 264 268 272 276 281 284 281 281 282 282 282 282 283 285 287 289 292
253 253 254 256 260 262 261 261 261 261 262 259 254 253 257 258 260 263 263 259 256 259 261 262 269 275 275 275 269 257 253 257 259 263 268 262 255 254 254 253 253 252 246 241 242 243 243 245 247 249 253 255 252 251 252 252 254 258 260 261 262 261 259 258 261 263 261 258 261 263 261 261 269 276 279 282 285 282 280 281 282 285 287 285 285 288 291 293
251 251 251 253 258 260 259 260 259 255 254 253 251 253 255 256 260 263 262 260 260 261 264 268 274 278 276 272 266 261 264 269 268 272 278 272 262 258 256 255 254 250 247 249 250 249 248 250 250 250 251 251 250 249 249 251 255 258 257 256 255 255 254 254 255 258 257 258 261 262 257 261 272 282 282 282 283 281 280 283 286 290 291 288 288 290 292 292
249 248 247 247 253 257 257 261 262 254 249 251 254 256 256 259 265 265 261 260 262 263 266 270 272 272 269 265 266 271 276 277 276 278 282 278 269 262 260 262 261 256 255 257 258 256 254 252 249 245 242 246 249 249 250 253 255 247 247 250 250 251 253 254 254 257 258 258 259 259 259 265 275 281 280 279 280 280 281 286 290 291 290 289 289 289 291 293
Height
3209 3209 3209 3209 3209 3209 3209 3209 3208 3208 3208 3208 3208 3207 3207 3207 3207 3207 3206 3206 3206 3205 3205 3204 3204 3204 3203 3202 3202 3201 3201 3200 3199 3199 3198 3198 3197 3196 3196 3195 3195 3194 3193 3192 3192 3191 3190 3189 3188 3188 3187 3187 3186 3186 3185 3184 3183 3183 3182 3182 3181 3180 3179 3178 3177 3177 3176 3175 3174 3174 3173 3173 3172 3172 3171 3170 3169 3169 3168 3167 3167 3167 3166 3166 3164 3163 3163 3162
3208 3208 3208 3208 3208 3208 3208 3208 3208 3208 3207 3207 3207 3207 3206 3206 3206 3206 3205 3205 3205 3205 3204 3204 3203 3203 3203 3202 3202 3201 3200 3200 3199 3199 3198 3197 3197 3196 3196 3195 3195 3194 3193 3192 3192 3191 3190 3189 3189 3188 3187 3187 3186 3185 3185 3184 3183 3182 3182 3181 3180 3179 3178 3177 3176 3175 3174 3174 3173 3172 3172 3171 3171 3170 3169 3168 3168 3167 3166 3166 3165 3165 3164 3163 3162 3161 3160 3160
3207 3207 3207 3207 3207 3207 3207 3207 3207 3207 3207 3206 3206 3206 3206 3205 3205 3205 3204 3204 3204 3203 3203 3203 3202 3202 3202 3201 3201 3200 3200 3199 3198 3198 3197 3197 3196 3196 3195 3195 3194 3193 3193 3192 3191 3190 3190 3189 3188 3188 3187 3186 3186 3185 3184 3183 3183 3182 3181 3180 3179 3178 3177 3176 3175 3174 3173 3172 3171 3171 3170 3170 3169 3168 3167 3167 3166 3165 3164 3164 3163 3162 3162 3160 3159 3159 3158 3157
3206 3206 3206 3206 3206 3206 3205 3205 3205 3205 3205 3205 3205 3205 3205 3205 3204 3204 3203 3203 3202 3202 3202 3202 3201 3201 3201 3200 3200 3199 3199 3198 3198 3197 3197 3196 3196 3195 3195 3194 3194 3193 3192 3192 3191 3190 3189 3189 3188 3187 3187 3186 3185 3184 3184 3183 3182 3181 3180 3179 3178 3177 3176 3175 3174 3173 3172 3171 3170 3169 3168 3168 3167 3166 3165 3165 3164 3163 3163 3162 3160 3159 3159 3158 3157 3156 3155 3155
3204 3204 3205 3205 3204 3204 3204 3204 3204 3204 3204 3204 3204 3204 3204 3204 3203 3203 3202 3202 3201 3201 3201 3200 3200 3200 3199 3199 3199 3198 3198 3197 3197 3196 3196 3195 3195 3194 3194 3194 3193 3192 3192 3191 3190 3189 3189 3188 3187 3187 3186 3185 3184 3184 3183 3182 3181 3180 3179 3178 3177 3176 3175 3174 3173 3172 3171 3170 3168 3168 3167 3166 3165 3164 3163 3163 3162 3161 3160 3159 3158 3157 3157 3155 3154 3154 3153 3152
3203 3203 3203 3203 3203 3203 3203 3203 3202 3202 3202 3202 3203 3203 3202 3202 3202 3202 3201 3201 3200 3200 3199 3199 3199 3198 3198 3198 3197 3197 3197 3196 3196 3195 3195 3194 3194 3194 3193 3193 3192 3192 3191 3190 3190 3189 3188 3188 3187 3186 3185 3184 3184 3183 3182 3181 3180 3179 3178 3177 3176 3175 3174 3173 3172 3171 3170 3168 3167 3166 3165 3164 3163 3162 3161 3160 3160 3159 3158 3157 3156 3155 3154 3153 3152 3151 3151 3150
3202 3202 3202 3202 3202 3201 3201 3201 3201 3201 3201 3201 3201 3201 3201 3201 3201 3200 3200 3200 3199 3199 3198 3198 3197 3197 3197 3196 3196 3196 3195 3195 3194 3194 3193 3193 3193 3192 3192 3192 3191 3191 3190 3190 3189 3188 3187 3187 3186 3185 3184 3183 3182 3182 3181 3180 3179 3178 3177 3175 3174 3173 3172 3171 3170 3169 3168 3167 3166 3165 3164 3163 3161 3160 3159 3159 3159 3157 3155 3155 3154 3153 3152 3151 3150 3149 3149 3148
3200 3200 3200 3200 3200 3200 3200 3200 3199 3199 3199 3199 3199 3199 3199 3199 3199 3199 3199 3198 3198 3197 3197 3197 3196 3196 3195 3195 3194 3194 3194 3193 3193 3193 3192 3192 3191 3191 3191 3190 3190 3190 3189 3189 3188 3187 3186 3186 3185 3184 3183 3182 3181 3180 3179 3179 3178 3176 3175 3174 3173 3172 3171 3170 3169 3168 3166 3165 3164 3163 3162 3161 3159 3158 3157 3157 3157 3155 3153 3152 3152 3151 3150 3149 3148 3147 3146 3145
3198 3198 3199 3199 3199 3199 3198 3198 3198 3198 3197 3197 3197 3197 3197 3197 3197 3197 3197 3197 3196 3196 3196 3195 3195 3194 3194 3193 3193 3192 3192 3192 3192 3191 3191 3190 3190 3190 3189 3189 3188 3188 3188 3187 3187 3186 3185 3184 3184 3183 3182 3181 3180 3179 3178 3177 3176 3175 3174 3172 3172 3170 3169 3168 3167 3166 3165 3164 3162 3160 3160 3159 3157 3155 3154 3155 3155 3153 3151 3150 3149 3149 3148 3147 3146 3144 3143 3143
3196 3196 3196 3196 3197 3197 3197 3197 3196 3196 3196 3195 3195 3195 3195 3195 3195 3195 3195 3195 3194 3194 3194 3194 3193 3192 3192 3191 3191 3191 3190 3190 3190 3190 3189 3189 3189 3188 3188 3187 3187 3186 3186 3185 3185 3184 3184 3183 3182 3181 3180 3179 3178 3177 3176 3175 3174 3173 3172 3170 3170 3168 3167 3166 3165 3164 3163 3162 3160 3158 3157 3157 3156 3153 3152 3154 3153 3151 3149 3148 3147 3146 3145 3144 3142 3141 3140 3139
3193 3193 3194 3194 3194 3194 3194 3194 3194 3194 3194 3194 3194 3193 3193 3193 3193 3193 3193 3193 3192 3192 3192 3192 3191 3191 3190 3190 3189 3189 3189 3188 3188 3188 3188 3187 3187 3186 3186 3185 3185 3185 3184 3183 3183 3182 3181 3181 3180 3179 3178 3177 3176 3175 3173 3172 3171 3170 3169 3168 3167 3166 3165 3164 3163 3162 3160 3159 3158 3156 3153 3152 3154 3151 3151 3152 3150 3148 3147 3145 3144 3143 3142 3141 3139 3138 3137 3136
3190 3191 3191 3191 3191 3191 3192 3192 3192 3192 3192 3192 3191 3191 3191 3191 3191 3191 3191 3190 3190 3190 3190 3189 3189 3189 3188 3187 3187 3187 3187 3186 3186 3186 3186 3185 3185 3184 3184 3184 3183 3182 3182 3181 3180 3180 3179 3178 3178 3177 3176 3175 3174 3173 3171 3170 3169 3168 3167 3165 3165 3164 3163 3162 3161 3159 3158 3157 3156 3155 3148 3144 3148 3149 3150 3150 3147 3146 3144 3142 3142 3140 3139 3138 3136 3135 3133 3132
3188 3188 3188 3188 3188 3188 3188 3188 3189 3189 3189 3189 3189 3189 3188 3188 3188 3188 3188 3188 3188 3188 3187 3187 3187 3186 3185 3185 3185 3185 3185 3184 3184 3184 3184 3183 3183 3182 3182 3181 3181 3180 3179 3179 3178 3177 3177 3176 3175 3174 3174 3173 3172 3171 3169 3168 3166 3165 3164 3163 3162 3161 3159 3159 3159 3157 3156 3154 3154 3154 3146 3138 3141 3145 3147 3147 3144 3143 3141 3139 3139 3137 3136 3135 3133 3132 3130 3129
3185 3185 3185 3185 3185 3185 3185 3185 3186 3186 3186 3186 3186 3186 3186 3186 3185 3185 3185 3185 3185 3185 3185 3184 3184 3183 3183 3182 3183 3183 3182 3182 3182 3182 3182 3181 3181 3180 3180 3179 3178 3178 3177 3176 3176 3175 3174 3174 3173 3172 3171 3170 3169 3168 3167 3165 3164 3163 3162 3160 3159 3158 3156 3156 3156 3155 3153 3152 3151 3152 3145 3136 3138 3141 3142 3143 3141 3140 3138 3136 3135 3134 3133 3131 3130 3128 3126 3125
3183 3183 3183 3183 3183 3183 3182 3182 3183 3183 3183 3183 3184 3183 3183 3183 3183 3182 3183 3182 3183 3182 3182 3182 3181 3180 3180 3180 3180 3180 3180 3180 3180 3180 3179 3179 3178 3178 3177 3176 3176 3175 3175 3174 3173 3173 3172 3171 3170 3169 3168 3168 3167 3165 3164 3163 3161 3161 3160 3157 3156 3155 3153 3152 3152 3152 3151 3149 3147 3148 3142 3135 3137 3138 3137 3137 3137 3136 3134 3133 3132 3130 3129 3127 3126 3124 3123 3121
3180 3180 3180 3180 3180 3180 3180 3180 3180 3180 3180 3181 3181 3180 3180 3180 3180 3180 3179 3179 3179 3179 3179 3179 3178 3178 3177 3177 3177 3177 3178 3178 3178 3177 3177 3177 3176 3175 3175 3174 3174 3173 3173 3172 3171 3171 3170 3169 3168 3167 3166 3165 3164 3163 3162 3160 3158 3158 3157 3155 3154 3152 3150 3148 3147 3147 3147 3146 3144 3143 3138 3133 3134 3136 3134 3132 3132 3131 3129 3128 3128 3126 3124 3123 3121 3120 3119 3117
3177 3177 3177 3177 3177 3177 3177 3177 3177 3177 3178 3178 3178 3178 3177 3177 3177 3176 3176 3176 3176 3176 3176 3175 3175 3174 3174 3174 3174 3175 3175 3175 3175 3175 3174 3174 3173 3173 3173 3172 3171 3171 3170 3170 3169 3168 3168 3167 3166 3164 3163 3162 3162 3161 3160 3157 3155 3155 3154 3152 3151 3150 3148 3146 3143 3143 3143 3142 3140 3138 3133 3129 3131 3132 3131 3129 3127 3126 3124 3123 3124 3122 3119 3118 3117 3116 3114 3113
3174 3174 3174 3175 3174 3175 3175 3174 3174 3175 3175 3175 3175 3175 3174 3174 3173 3173 3173 3172 3172 3172 3172 3172 3172 3171 3170 3171 3172 3172 3173 3172 3172 3172 3172 3171 3171 3171 3170 3169 3169 3168 3168 3167 3166 3166 3165 3164 3164 3162 3160 3159 3159 3158 3157 3154 3153 3153 3151 3150 3148 3147 3145 3143 3141 3140 3139 3137 3136 3133 3127 3124 3125 3127 3127 3126 3124 3121 3119 3119 3118 3117 3114 3113 3113 3112 3110 3108
3171 3171 3172 3172 3172 3172 3172 3171 3172 3172 3172 3172 3172 3172 3171 3171 3170 3170 3169 3168 3168 3169 3168 3168 3168 3167 3167 3169 3169 3169 3169 3169 3169 3169 3169 3169 3168 3167 3167 3166 3166 3166 3165 3164 3163 3163 3162 3161 3161 3158 3156 3156 3156 3155 3153 3151 3151 3150 3148 3147 3145 3143 3142 3141 3139 3137 3135 3132 3130 3128 3122 3119 3120 3120 3122 3123 3121 3116 3114 3114 3113 3111 3109 3108 3108 3107 3105 3104
3167 3167 3168 3168 3169 3169 3168 3169 3169 3169 3169 3169 3169 3169 3168 3167 3167 3166 3166 3164 3164 3164 3165 3164 3163 3164 3164 3165 3166 3166 3166 3166 3166 3166 3166 3166 3165 3164 3164 3163 3163 3162 3161 3161 3160 3159 3159 3158 3156 3155 3153 3153 3153 3152 3150 3149 3148 3147 3145 3144 3142 3140 3137 3138 3137 3133 3132 3127 3123 3123 3119 3114 3113 3114 3116 3117 3116 3113 3110 3109 3108 3106 3105 3104 3104 3102 3100 3100
3163 3164 3164 3164 3165 3166 3165 3166 3166 3166 3166 3166 3166 3165 3164 3164 3163 3161 3161 3160 3160 3160 3160 3160 3159 3159 3161 3162 3162 3162 3162 3162 3162 3163 3162 3162 3161 3160 3160 3160 3159 3158 3158 3158 3156 3155 3155 3153 3152 3152 3151 3150 3149 3149 3147 3146 3145 3144 3143 3141 3139 3137 3134 3135 3134 3130 3129 3123 3117 3118 3113 3107 3107 3108 3109 3110 3108 3108 3107 3105 3104 3103 3102 3101 3100 3098 3096 3096
3160 3160 3161 3161 3162 3162 3162 3162 3163 3163 3162 3162 3162 3161 3161 3160 3159 3158 3156 3153 3154 3156 3155 3155 3155 3155 3157 3157 3157 3158 3157 3156 3157 3158 3159 3158 3157 3156 3156 3156 3155 3154 3155 3154 3152 3151 3151 3149 3149 3149 3148 3147 3146 3145 3144 3143 3141 3140 3140 3138 3136 3134 3131 3131 3131 3127 3125 3120 3114 3113 3106 3099 3100 3102 3103 3103 3101 3102 3102 3102 3101 3100 3099 3097 3096 3094 3092 3092
3156 3156 3157 3158 3158 3159 3158 3159 3159 3159 3159 3159 3158 3158 3157 3156 3155 3154 3152 3147 3146 3150 3151 3151 3151 3151 3153 3153 3153 3154 3151 3151 3153 3153 3154 3153 3152 3153 3151 3152 3151 3150 3150 3149 3148 3147 3146 3146 3146 3146 3144 3143 3143 3142 3141 3139 3138 3137 3137 3136 3132 3132 3131 3127 3126 3124 3122 3118 3112 3109 3100 3091 3092 3095 3096 3097 3096 3097 3097 3097 3098 3097 3095 3094 3092 3090 3088 3088
3152 3153 3153 3154 3155 3155 3155 3155 3155 3155 3156 3155 3155 3155 3154 3153 3152 3150 3148 3141 3136 3141 3145 3146 3146 3147 3149 3149 3148 3148 3146 3146 3147 3148 3149 3148 3148 3148 3146 3148 3147 3145 3145 3145 3144 3143 3142 3143 3142 3142 3141 3140 3140 3139 3139 3136 3134 3134 3134 3133 3129 3129 3129 3125 3123 3121 3118 3115 3111 3107 3095 3080 3083 3087 3087 3091 3091 3092 3093 3091 3093 3093 3091 3090 3088 3086 3086 3084
3148 3148 3149 3150 3151 3152 3151 3151 3151 3152 3152 3152 3151 3151 3151 3149 3148 3146 3144 3136 3127 3130 3138 3139 3140 3141 3143 3143 3143 3143 3142 3140 3142 3143 3143 3143 3143 3143 3142 3143 3142 3140 3141 3141 3139 3137 3138 3139 3138 3138 3138 3137 3136 3135 3136 3134 3130 3130 3130 3129 3127 3126 3126 3123 3121 3119 3116 3113 3108 3109 3099 3073 3070 3080 3080 3085 3087 3086 3088 3086 3086 3088 3087 3086 3084 3083 3083 3081
3144 3144 3145 3146 3147 3148 3147 3146 3148 3148 3148 3148 3148 3148 3147 3146 3146 3144 3142 3132 3119 3121 3129 3131 3133 3134 3134 3136 3138 3140 3137 3134 3137 3137 3137 3138 3138 3138 3137 3137 3136 3135 3136 3137 3134 3131 3133 3135 3134 3135 3134 3133 3133 3131 3132 3131 3126 3125 3125 3126 3125 3123 3122 3120 3119 3118 3115 3111 3106 3112 3110 3078 3062 3072 3074 3078 3081 3080 3083 3083 3081 3083 3081 3080 3080 3079 3079 3077
3140 3141 3141 3141 3143 3144 3143 3142 3144 3144 3144 3145 3144 3144 3144 3143 3143 3142 3140 3129 3113 3114 3122 3123 3126 3128 3128 3131 3133 3134 3131 3129 3132 3132 3132 3134 3133 3133 3132 3131 3132 3131 3132 3133 3129 3127 3129 3131 3130 3130 3130 3130 3128 3127 3128 3128 3123 3120 3121 3123 3122 3119 3119 3117 3117 3116 3111 3109 3103 3106 3114 3089 3059 3060 3069 3072 3075 3074 3076 3079 3078 3078 3077 3076 3076 3075 3074 3073
3136 3137 3137 3138 3139 3139 3139 3139 3139 3140 3141 3140 3140 3141 3139 3139 3140 3139 3140 3129 3110 3109 3117 3118 3121 3123 3125 3128 3128 3129 3127 3125 3128 3128 3129 3130 3128 3128 3127 3126 3128 3127 3128 3128 3123 3123 3126 3126 3126 3126 3126 3124 3123 3124 3124 3124 3120 3116 3117 3118 3117 3117 3116 3114 3114 3113 3109 3107 3099 3097 3109 3095 3055 3048 3063 3065 3067 3070 3071 3074 3074 3073 3072 3071 3071 3071 3070 3070
3132 3133 3134 3134 3134 3135 3136 3135 3135 3136 3137 3136 3137 3136 3136 3137 3136 3136 3138 3125 3108 3108 3113 3115 3118 3120 3122 3125 3125 3125 3124 3123 3124 3124 3126 3126 3124 3124 3123 3123 3124 3122 3123 3122 3118 3121 3121 3120 3122 3121 3121 3120 3120 3120 3119 3119 3116 3113 3113 3113 3114 3113 3112 3112 3110 3110 3109 3101 3093 3091 3101 3094 3054 3037 3055 3059 3060 3066 3068 3070 3071 3070 3069 3068 3068 3067 3066 3067
3127 3128 3129 3130 3130 3131 3131 3131 3132 3132 3133 3133 3133 3133 3133 3133 3133 3134 3129 3114 3105 3108 3110 3111 3114 3117 3119 3120 3121 3121 3121 3120 3120 3120 3121 3121 3120 3120 3119 3120 3120 3118 3118 3117 3115 3117 3116 3116 3117 3116 3116 3116 3116 3115 3114 3114 3112 3111 3111 3109 3111 3110 3108 3110 3106 3107 3107 3092 3085 3086 3091 3093 3062 3035 3045 3053 3055 3062 3064 3066 3067 3066 3067 3066 3065 3064 3063 3064
3122 3123 3124 3125 3125 3126 3126 3127 3127 3128 3129 3129 3129 3130 3130 3130 3130 3127 3112 3102 3105 3107 3105 3108 3110 3111 3113 3113 3114 3116 3116 3116 3116 3116 3116 3116 3116 3115 3114 3115 3116 3115 3114 3112 3111 3112 3112 3110 3110 3111 3112 3112 3111 3111 3109 3109 3108 3108 3108 3107 3109 3107 3105 3106 3103 3106 3103 3084 3080 3082 3083 3087 3065 3037 3042 3049 3050 3057 3061 3062 3063 3063 3063 3063 3062 3061 3060 3061
3118 3118 3118 3119 3121 3121 3121 3121 3122 3124 3124 3124 3126 3126 3127 3127 3121 3107 3097 3101 3106 3102 3101 3105 3105 3106 3109 3108 3108 3111 3111 3111 3111 3112 3112 3111 3110 3108 3109 3110 3111 3112 3109 3107 3107 3108 3106 3104 3105 3106 3107 3108 3107 3106 3105 3104 3103 3103 3103 3106 3108 3106 3105 3103 3098 3097 3092 3080 3078 3079 3080 3075 3052 3037 3044 3047 3048 3054 3057 3059 3060 3060 3060 3059 3059 3058 3057 3058
3113 3112 3112 3114 3115 3116 3117 3117 3118 3119 3118 3119 3121 3120 3124 3122 3102 3088 3093 3101 3102 3098 3099 3102 3102 3103 3104 3102 3103 3106 3106 3106 3107 3108 3107 3106 3104 3102 3104 3105 3106 3107 3104 3103 3104 3103 3100 3098 3100 3101 3101 3102 3101 3101 3100 3097 3098 3098 3098 3102 3104 3103 3105 3099 3090 3087 3082 3077 3074 3076 3077 3062 3039 3036 3041 3041 3046 3051 3053 3056 3056 3056 3056 3055 3055 3055 3053 3054
3107 3106 3106 3107 3109 3110 3112 3112 3112 3113 3114 3115 3115 3116 3119 3108 3086 3082 3090 3094 3095 3097 3098 3099 3100 3100 3098 3097 3099 3101 3103 3102 3102 3104 3102 3100 3098 3096 3098 3099 3101 3102 3101 3101 3099 3098 3097 3091 3090 3095 3096 3095 3095 3096 3096 3093 3093 3093 3094 3098 3097 3096 3098 3092 3084 3081 3077 3073 3071 3073 3069 3049 3034 3035 3035 3036 3043 3047 3049 3051 3051 3051 3052 3051 3051 3051 3050 3050
3101 3099 3099 3101 3102 3104 3106 3107 3106 3107 3108 3108 3109 3111 3105 3088 3078 3082 3084 3085 3091 3094 3093 3095 3096 3095 3093 3093 3095 3097 3099 3098 3097 3098 3096 3094 3093 3091 3091 3093 3096 3097 3097 3097 3094 3094 3093 3084 3083 3090 3090 3090 3091 3091 3092 3091 3090 3089 3090 3092 3090 3088 3090 3087 3083 3079 3079 3075 3066 3062 3053 3036 3031 3032 3029 3034 3038 3040 3045 3045 3045 3047 3047 3047 3047 3046 3047 3046
3095 3092 3092 3093 3096 3099 3100 3100 3100 3101 3102 3102 3103 3100 3087 3075 3076 3080 3078 3080 3085 3087 3089 3092 3090 3089 3088 3087 3089 3091 3093 3093 3091 3092 3090 3088 3088 3085 3084 3086 3090 3092 3091 3092 3091 3090 3088 3081 3080 3083 3083 3085 3086 3086 3087 3086 3084 3085 3084 3083 3081 3083 3085 3086 3084 3079 3081 3077 3059 3047 3040 3029 3028 3025 3020 3028 3033 3034 3039 3038 3039 3041 3041 3042 3042 3042 3044 3042
3089 3085 3084 3085 3089 3091 3091 3093 3093 3093 3094 3094 3092 3087 3076 3072 3076 3077 3076 3078 3079 3082 3087 3086 3083 3082 3082 3081 3082 3084 3088 3089 3086 3086 3086 3084 3080 3076 3077 3081 3083 3085 3086 3088 3087 3086 3084 3079 3076 3077 3077 3079 3081 3081 3080 3078 3079 3080 3078 3076 3077 3081 3083 3084 3084 3080 3079 3075 3054 3040 3037 3029 3023 3018 3014 3021 3027 3028 3032 3033 3033 3035 3035 3037 3037 3038 3039 3038
3085 3081 3076 3076 3080 3083 3084 3085 3085 3085 3085 3084 3082 3077 3071 3070 3071 3073 3074 3075 3076 3080 3081 3079 3077 3077 3077 3077 3076 3079 3084 3083 3080 3080 3080 3078 3072 3068 3072 3076 3076 3079 3083 3085 3083 3081 3080 3077 3073 3072 3071 3073 3076 3075 3072 3071 3074 3074 3071 3073 3074 3076 3077 3079 3081 3077 3073 3071 3053 3038 3035 3023 3011 3011 3013 3017 3022 3023 3025 3027 3027 3028 3030 3031 3032 3034 3034 3033
3080 3076 3067 3065 3071 3075 3076 3076 3076 3078 3076 3073 3071 3067 3063 3064 3065 3067 3070 3072 3074 3075 3072 3071 3073 3073 3072 3072 3072 3074 3076 3075 3075 3075 3073 3070 3065 3062 3066 3070 3072 3074 3077 3079 3077 3075 3077 3075 3070 3066 3066 3069 3069 3066 3065 3065 3068 3068 3067 3068 3068 3069 3071 3071 3072 3068 3064 3064 3054 3043 3034 3010 2995 3005 3013 3014 3017 3019 3019 3021 3021 3022 3024 3026 3027 3028 3029 3029
3072 3067 3058 3058 3063 3067 3068 3067 3067 3068 3065 3062 3062 3060 3057 3058 3060 3064 3067 3067 3068 3068 3066 3066 3068 3068 3067 3066 3067 3069 3070 3068 3068 3068 3066 3064 3060 3058 3061 3065 3067 3070 3071 3073 3072 3071 3072 3070 3067 3064 3063 3063 3059 3056 3058 3058 3059 3060 3060 3061 3061 3063 3066 3065 3063 3061 3059 3060 3054 3048 3034 3003 2988 3000 3007 3009 3013 3013 3013 3014 3014 3016 3018 3020 3021 3022 3024 3025
3064 3057 3052 3055 3057 3059 3060 3056 3054 3056 3054 3053 3054 3053 3053 3054 3055 3059 3061 3062 3062 3062 3062 3062 3062 3063 3062 3062 3062 3063 3065 3063 3061 3061 3059 3057 3056 3055 3056 3059 3062 3064 3065 3065 3065 3065 3065 3064 3063 3062 3058 3054 3051 3051 3053 3052 3052 3053 3053 3054 3054 3056 3059 3060 3057 3054 3053 3052 3046 3043 3032 3001 2987 2998 3003 3004 3008 3006 3007 3009 3008 3011 3013 3013 3015 3016 3018 3020
3056 3049 3047 3050 3050 3052 3052 3046 3044 3047 3045 3045 3046 3046 3049 3050 3051 3053 3054 3056 3056 3056 3057 3056 3056 3057 3056 3056 3057 3058 3059 3057 3055 3054 3051 3050 3052 3051 3052 3055 3056 3057 3058 3058 3058 3059 3059 3058 3057 3056 3054 3052 3050 3049 3047 3046 3046 3048 3048 3049 3049 3049 3050 3050 3049 3045 3045 3045 3037 3036 3030 3000 2984 2996 3002 3001 3003 3002 3003 3005 3004 3006 3007 3007 3009 3010 3012 3013
3049 3046 3045 3044 3042 3045 3045 3040 3039 3039 3036 3038 3041 3042 3045 3046 3045 3046 3047 3049 3050 3050 3050 3049 3049 3050 3050 3051 3052 3053 3053 3050 3047 3046 3045 3046 3046 3045 3049 3051 3049 3050 3052 3051 3051 3053 3054 3052 3052 3051 3051 3050 3047 3042 3039 3039 3041 3042 3040 3041 3041 3040 3040 3041 3042 3041 3040 3036 3028 3031 3027 2999 2982 2995 3002 2997 2998 2998 2999 3000 3000 3000 3000 3001 3003 3004 3006 3007
3043 3043 3042 3040 3037 3037 3036 3032 3032 3031 3030 3034 3035 3035 3038 3038 3039 3041 3041 3042 3044 3044 3043 3042 3042 3043 3044 3047 3048 3047 3047 3045 3040 3040 3042 3041 3038 3039 3042 3044 3043 3044 3044 3042 3043 3046 3047 3046 3048 3050 3049 3047 3043 3036 3031 3030 3032 3032 3031 3033 3033 3034 3038 3039 3038 3038 3034 3024 3020 3025 3018 2994 2984 2995 2998 2994 2995 2995 2995 2996 2996 2995 2995 2996 2997 2997 2998 3000
3039 3037 3036 3035 3032 3028 3025 3024 3026 3025 3025 3028 3027 3028 3031 3030 3032 3035 3035 3034 3037 3037 3036 3035 3036 3037 3039 3041 3041 3040 3040 3039 3036 3036 3037 3035 3032 3032 3034 3035 3037 3037 3036 3037 3039 3039 3040 3039 3041 3043 3041 3038 3031 3024 3021 3022 3024 3026 3025 3027 3028 3031 3034 3033 3033 3034 3022 3010 3014 3018 3004 2987 2989 2995 2992 2991 2993 2992 2991 2991 2991 2991 2990 2990 2991 2991 2991 2993
3033 3030 3029 3030 3027 3021 3018 3020 3022 3019 3019 3022 3020 3020 3023 3022 3024 3028 3028 3027 3029 3030 3029 3028 3030 3032 3033 3035 3035 3033 3033 3033 3032 3032 3030 3028 3026 3026 3027 3028 3031 3032 3031 3033 3033 3032 3032 3030 3030 3031 3028 3023 3019 3016 3019 3022 3022 3022 3022 3023 3025 3026 3027 3028 3027 3019 3007 3004 3009 3007 2993 2987 2992 2993 2986 2985 2988 2987 2985 2986 2987 2987 2985 2984 2985 2985 2985 2986
3026 3021 3020 3023 3021 3015 3013 3015 3015 3012 3014 3016 3013 3013 3016 3016 3018 3021 3021 3021 3023 3023 3022 3022 3024 3025 3026 3028 3028 3026 3026 3026 3027 3026 3023 3021 3021 3022 3022 3022 3024 3025 3025 3025 3027 3026 3023 3020 3021 3022 3019 3018 3018 3016 3019 3021 3018 3018 3020 3019 3020 3021 3022 3022 3012 3000 3001 3007 3001 2991 2988 2989 2992 2990 2980 2974 2978 2981 2980 2981 2982 2981 2979 2977 2977 2978 2978 2978
3020 3014 3013 3015 3012 3007 3005 3007 3008 3007 3007 3009 3008 3009 3011 3012 3012 3013 3013 3015 3016 3016 3016 3014 3016 3017 3019 3021 3021 3017 3019 3021 3020 3018 3015 3014 3016 3017 3017 3017 3018 3018 3019 3019 3020 3020 3016 3013 3016 3016 3013 3015 3017 3015 3015 3015 3014 3016 3016 3015 3016 3015 3013 3007 2996 2992 3001 3001 2986 2981 2988 2990 2989 2984 2972 2966 2970 2973 2973 2974 2974 2974 2973 2971 2970 2971 2971 2970
3013 3010 3009 3008 3003 2999 2998 3001 3004 3002 3000 3002 3001 3000 3004 3005 3004 3005 3008 3009 3007 3007 3009 3007 3008 3011 3011 3013 3013 3010 3012 3014 3011 3009 3008 3008 3011 3012 3012 3011 3011 3012 3014 3014 3014 3014 3011 3009 3011 3011 3008 3009 3011 3010 3008 3008 3009 3010 3010 3011 3011 3006 3001 2996 2990 2989 2993 2987 2978 2981 2986 2985 2981 2972 2963 2964 2967 2966 2968 2969 2966 2965 2965 2965 2965 2965 2963 2962
3005 3005 3005 3002 2996 2994 2994 2995 2997 2993 2991 2994 2992 2990 2995 2996 2995 2999 3001 2999 2997 2999 3001 3000 3000 3004 3003 3004 3005 3001 3003 3007 3003 3002 3004 3003 3003 3005 3004 3004 3005 3005 3007 3007 3007 3007 3005 3003 3005 3007 3004 3002 3002 3001 3000 3002 3003 3002 3004 3007 3003 2994 2993 2993 2985 2979 2981 2979 2975 2979 2981 2977 2968 2960 2958 2962 2962 2961 2963 2963 2959 2957 2957 2958 2960 2958 2955 2953
2997 2997 3000 2996 2988 2988 2988 2987 2987 2984 2981 2983 2982 2982 2986 2985 2987 2993 2991 2989 2991 2992 2993 2993 2993 2997 2998 2997 2997 2994 2995 2998 2995 2996 2999 2997 2995 2997 2996 2996 2997 2997 2998 2999 2999 2999 2999 2998 2999 3002 2999 2994 2992 2991 2991 2995 2998 2999 3001 2997 2987 2981 2983 2982 2974 2971 2975 2974 2971 2973 2972 2962 2954 2954 2957 2957 2955 2957 2957 2955 2952 2949 2948 2952 2953 2950 2947 2945
2989 2988 2991 2989 2980 2979 2981 2980 2979 2975 2970 2972 2975 2976 2977 2978 2983 2988 2982 2980 2984 2986 2987 2988 2988 2989 2989 2987 2988 2988 2990 2990 2988 2990 2993 2991 2989 2989 2989 2988 2988 2989 2990 2991 2991 2991 2992 2991 2992 2994 2990 2984 2982 2983 2987 2992 2993 2990 2986 2978 2972 2974 2975 2970 2965 2966 2969 2969 2965 2962 2957 2950 2949 2953 2951 2947 2950 2952 2950 2948 2946 2941 2942 2946 2945 2942 2939 2937